小惑星2011 AF3

2011 AF3

English version
Home page
Updated on August 12, 2011

---------------------------------------------------------------------

・ プロフィール

発見日 2011年1月4日
発見光度 18.8等
発見者 Catalina Sky Survey

・ 軌道要素

The following orbital elements are taken from MPO190759

Epoch 2010 Dec. 30.0 TT = JDT 2455560.5                 MPC
M 357.51516              (2000.0)            P               Q
n   0.05324601     Peri.  109.35221     -0.85996587     +0.49767233
a   6.9975288      Node   100.63682     -0.50069910     -0.77986072
e   0.9444501      Incl.    6.60532     -0.09878826     -0.37965710
P  18.5            H   25.1           G   0.15
From 13 observations 2011 Jan. 4-4.  E-assumed.

・ 光度変化

        H = 25.1  G = 0.15

---------------------------------------------------------------------

軌道要素はMPCのEphemerides and Orbital Elementsに掲載されたものです。
光度グラフはComet for Windowsで作成したものです。

---------------------------------------------------------------------

Copyright(C) Seiichi Yoshida (comet@aerith.net). All rights reserved.